SAS2814 LEAL-EKCH

Flight info

Callsign SAS2814
Flight time 3h 8m
Altitude 38000
Route MITOS N851 PTC Z238 CHELY N853 LUMAS DCT MAXIR DCT LUSOL DCT BODRU DCT OKTET DCT IRMAR DCT KINES DCT VANAS DCT ESOKO DCT GODRA/N0435F390 DCT LOKTA DCT TEDGO DCT HAREM DCT LOHRE DCT BERXO DCT MAKEL N851 GESKA Z711 MONAK
Aircraft A20N/M-SDE2E3FGHIRWXY/LB1

Departure

Time 2026-04-26 16:45
Airport Alicante-Elche Miguel Hernández Airport (LEAL)

Arrival

Time 2026-04-26 19:53
Airport Copenhagen Kastrup Airport (EKCH)
Time Latitude Longitude Altitude Speed Heading
2026-04-26 15:56 38.28600 -0.55786 97 ft 0 kts
2026-04-26 16:30 38.28587 -0.55788 97 ft 4 kts
2026-04-26 16:30 38.28560 -0.55788 95 ft 4 kts 348°
2026-04-26 16:30 38.28536 -0.55777 97 ft 4 kts 321°
2026-04-26 16:31 38.28522 -0.55754 97 ft 2 kts 280°
2026-04-26 16:31 38.28522 -0.55753 97 ft 1 kts 280°
2026-04-26 16:38 38.28523 -0.55762 97 ft 3 kts 280°
2026-04-26 16:38 38.28530 -0.55813 99 ft 9 kts 280°
2026-04-26 16:38 38.28545 -0.55913 98 ft 14 kts 280°
2026-04-26 16:38 38.28528 -0.56011 99 ft 9 kts 190°
2026-04-26 16:39 38.28447 -0.56034 96 ft 15 kts 195°
2026-04-26 16:39 38.28435 -0.56104 96 ft 10 kts 274°
2026-04-26 16:39 38.28449 -0.56203 99 ft 12 kts 279°
2026-04-26 16:39 38.28464 -0.56315 104 ft 13 kts 280°
2026-04-26 16:40 38.28482 -0.56434 109 ft 14 kts 281°
2026-04-26 16:40 38.28499 -0.56558 112 ft 14 kts 272°
2026-04-26 16:40 38.28516 -0.56684 116 ft 15 kts 281°
2026-04-26 16:40 38.28535 -0.56815 125 ft 15 kts 280°
2026-04-26 16:41 38.28556 -0.56949 131 ft 16 kts 282°
2026-04-26 16:41 38.28576 -0.57085 137 ft 16 kts 281°
2026-04-26 16:41 38.28591 -0.57222 143 ft 16 kts 278°
2026-04-26 16:41 38.28611 -0.57360 149 ft 15 kts 279°
2026-04-26 16:42 38.28549 -0.57430 149 ft 0 kts 191°
2026-04-26 16:43 38.28526 -0.57435 150 ft 8 kts 191°
2026-04-26 16:43 38.28446 -0.57425 151 ft 8 kts 123°
2026-04-26 16:44 38.28437 -0.57387 150 ft 0 kts 101°
2026-04-26 16:44 38.28426 -0.57313 148 ft 34 kts 101°
2026-04-26 16:44 38.28343 -0.56717 126 ft 100 kts 99°
2026-04-26 16:44 38.28192 -0.55615 127 ft 147 kts 99°
2026-04-26 16:45 38.27987 -0.54277 455 ft 161 kts 100°
2026-04-26 16:45 38.27774 -0.52859 1020 ft 164 kts 100°
2026-04-26 16:45 38.27561 -0.51421 1650 ft 167 kts 99°
2026-04-26 16:45 38.27457 -0.49916 2060 ft 177 kts 77°
2026-04-26 16:46 38.27922 -0.48449 2204 ft 187 kts 60°
2026-04-26 16:46 38.28654 -0.46927 2413 ft 214 kts 57°
2026-04-26 16:46 38.29514 -0.45269 2939 ft 235 kts 56°
2026-04-26 16:46 38.30460 -0.43471 3582 ft 252 kts 56°
2026-04-26 16:47 38.31423 -0.41575 4486 ft 257 kts 59°
2026-04-26 16:47 38.32297 -0.39561 5413 ft 262 kts 64°
2026-04-26 16:47 38.33076 -0.37454 6391 ft 264 kts 68°
2026-04-26 16:47 38.33800 -0.35294 7320 ft 266 kts 69°
2026-04-26 16:48 38.34491 -0.33131 8244 ft 268 kts 69°
2026-04-26 16:48 38.35188 -0.30915 9176 ft 271 kts 69°
2026-04-26 16:48 38.35891 -0.28684 10120 ft 273 kts 69°
2026-04-26 16:48 38.36623 -0.26389 10699 ft 289 kts 68°
2026-04-26 16:49 38.37436 -0.23936 10985 ft 313 kts 68°
2026-04-26 16:49 38.38316 -0.21317 11466 ft 326 kts 68°
2026-04-26 16:49 38.39213 -0.18648 12287 ft 329 kts 68°
2026-04-26 16:49 38.40118 -0.15943 13120 ft 333 kts 68°
2026-04-26 16:50 38.41027 -0.13214 13926 ft 337 kts 68°
2026-04-26 16:50 38.41946 -0.10448 14630 ft 341 kts 68°
2026-04-26 16:50 38.42875 -0.07647 15311 ft 345 kts 68°
2026-04-26 16:50 38.43816 -0.04811 15996 ft 349 kts 68°
2026-04-26 16:51 38.44763 -0.01950 16683 ft 353 kts 68°
2026-04-26 16:51 38.45719 0.00961 17355 ft 357 kts 68°
2026-04-26 16:51 38.46669 0.03910 17988 ft 362 kts 69°
2026-04-26 16:51 38.47611 0.06856 18612 ft 366 kts 69°
2026-04-26 16:52 38.48578 0.09879 19173 ft 370 kts 69°
2026-04-26 16:52 38.49238 0.11942 19553 ft 373 kts 69°
2026-04-26 16:52 38.50546 0.16026 20297 ft 378 kts 69°
2026-04-26 16:52 38.51546 0.19149 20847 ft 382 kts 69°
2026-04-26 16:53 38.52557 0.22312 21396 ft 386 kts 69°
2026-04-26 16:53 38.53576 0.25500 21940 ft 390 kts 69°
2026-04-26 16:53 38.54605 0.28724 22473 ft 394 kts 69°
2026-04-26 16:53 38.55644 0.31982 23006 ft 398 kts 69°
2026-04-26 16:54 38.56692 0.35274 23541 ft 402 kts 69°
2026-04-26 16:54 38.57749 0.38598 23998 ft 406 kts 69°
2026-04-26 16:54 38.58812 0.41944 24490 ft 408 kts 69°
2026-04-26 16:54 38.59883 0.45318 24948 ft 410 kts 69°
2026-04-26 16:55 38.60944 0.48667 25388 ft 413 kts 69°
2026-04-26 16:55 38.62024 0.52079 25817 ft 416 kts 69°
2026-04-26 16:55 38.63112 0.55522 26244 ft 419 kts 69°
2026-04-26 16:55 38.64204 0.58983 26677 ft 421 kts 69°
2026-04-26 16:56 38.66408 0.65978 27490 ft 426 kts 69°
2026-04-26 16:56 38.67517 0.69505 27876 ft 429 kts 69°
2026-04-26 16:56 38.68632 0.73056 28268 ft 431 kts 69°
2026-04-26 16:57 38.69753 0.76629 28637 ft 434 kts 69°
2026-04-26 16:57 38.70880 0.80224 28987 ft 436 kts 69°
2026-04-26 16:57 38.73133 0.87425 29669 ft 441 kts 69°
2026-04-26 16:58 38.74272 0.91076 29992 ft 443 kts 69°
2026-04-26 16:58 38.75046 0.93560 30207 ft 445 kts 69°
2026-04-26 16:58 38.77724 1.02167 30908 ft 449 kts 69°
2026-04-26 16:59 38.78882 1.05895 31225 ft 451 kts 69°
2026-04-26 16:59 38.81194 1.13359 32004 ft 450 kts 69°
2026-04-26 17:00 38.83493 1.20799 32785 ft 448 kts 69°
2026-04-26 17:00 38.85776 1.28208 33521 ft 446 kts 69°
2026-04-26 17:00 38.86898 1.31856 33869 ft 446 kts 69°
2026-04-26 17:01 38.88034 1.35557 34182 ft 445 kts 69°
2026-04-26 17:01 38.89168 1.39255 34458 ft 445 kts 69°
2026-04-26 17:01 38.90301 1.42954 34677 ft 446 kts 69°
2026-04-26 17:01 38.91436 1.46667 34898 ft 447 kts 69°
2026-04-26 17:02 38.92562 1.50392 35125 ft 448 kts 70°
2026-04-26 17:02 38.93668 1.54136 35329 ft 449 kts 70°
2026-04-26 17:02 38.94769 1.57891 35547 ft 449 kts 70°
2026-04-26 17:02 38.95870 1.61644 35753 ft 450 kts 70°
2026-04-26 17:03 38.96977 1.65412 35969 ft 450 kts 70°
2026-04-26 17:03 38.98080 1.69169 36186 ft 450 kts 70°
2026-04-26 17:03 38.99171 1.72883 36389 ft 450 kts 70°
2026-04-26 17:03 39.00276 1.76652 36603 ft 450 kts 70°
2026-04-26 17:04 39.01379 1.80417 36808 ft 450 kts 70°
2026-04-26 17:04 39.02481 1.84183 37012 ft 450 kts 70°
2026-04-26 17:04 39.03580 1.87944 37206 ft 450 kts 70°
2026-04-26 17:04 39.04680 1.91716 37397 ft 450 kts 70°
2026-04-26 17:05 39.05776 1.95479 37595 ft 450 kts 70°
2026-04-26 17:05 39.06873 1.99250 37762 ft 449 kts 70°
2026-04-26 17:05 39.07966 2.03014 37936 ft 449 kts 70°
2026-04-26 17:05 39.09045 2.06733 38093 ft 450 kts 71°
2026-04-26 17:06 39.11225 2.14268 38118 ft 448 kts 71°
2026-04-26 17:06 39.13395 2.21786 38122 ft 448 kts 71°
2026-04-26 17:07 39.15559 2.29310 38119 ft 448 kts 71°
2026-04-26 17:07 39.17721 2.36844 38118 ft 448 kts 71°
2026-04-26 17:08 39.19877 2.44382 38122 ft 448 kts 71°
2026-04-26 17:08 39.22026 2.51913 38117 ft 448 kts 71°
2026-04-26 17:09 39.23807 2.58176 38117 ft 447 kts 71°
2026-04-26 17:09 39.26293 2.66933 38118 ft 447 kts 71°
2026-04-26 17:10 39.28425 2.74476 38121 ft 447 kts 71°
2026-04-26 17:10 39.30552 2.82020 38118 ft 447 kts 71°
2026-04-26 17:11 39.32660 2.89521 38118 ft 447 kts 71°
2026-04-26 17:11 39.34779 2.97079 38115 ft 448 kts 71°
2026-04-26 17:12 39.37963 3.08477 38125 ft 448 kts 71°
2026-04-26 17:13 39.41283 3.19779 38121 ft 449 kts 62°
2026-04-26 17:13 39.45066 3.26174 38119 ft 450 kts 42°
2026-04-26 17:14 39.47529 3.28661 38121 ft 450 kts 32°
2026-04-26 17:14 39.55855 3.34258 38128 ft 450 kts 26°
2026-04-26 17:15 39.64227 3.39769 38129 ft 451 kts 26°
2026-04-26 17:16 39.69815 3.43473 38130 ft 449 kts 28°
2026-04-26 17:16 39.75207 3.47571 38129 ft 449 kts 30°
2026-04-26 17:17 39.80560 3.51635 38124 ft 448 kts 30°
2026-04-26 17:17 39.85938 3.55728 38130 ft 448 kts 30°
2026-04-26 17:18 39.91316 3.59835 38126 ft 447 kts 30°
2026-04-26 17:18 39.96667 3.63930 38122 ft 446 kts 30°
2026-04-26 17:19 40.04675 3.70072 38120 ft 444 kts 30°
2026-04-26 17:19 40.09963 3.74137 38114 ft 444 kts 30°
2026-04-26 17:20 40.13518 3.76874 38119 ft 443 kts 30°
2026-04-26 17:20 40.20582 3.82325 38119 ft 442 kts 29°
2026-04-26 17:21 40.25868 3.86414 38136 ft 442 kts 29°
2026-04-26 17:21 40.30270 3.89822 38120 ft 441 kts 29°
2026-04-26 17:22 40.36407 3.94581 38122 ft 441 kts 29°
2026-04-26 17:22 40.41687 3.98685 38120 ft 441 kts 29°
2026-04-26 17:23 40.46074 4.02100 38115 ft 441 kts 29°
2026-04-26 17:23 40.51357 4.06220 38116 ft 442 kts 29°
2026-04-26 17:24 40.56641 4.10348 38125 ft 442 kts 29°
2026-04-26 17:24 40.61928 4.14486 38128 ft 443 kts 29°
2026-04-26 17:25 40.67220 4.18636 38130 ft 443 kts 29°
2026-04-26 17:25 40.72520 4.22800 38134 ft 444 kts 29°
2026-04-26 17:26 40.77789 4.26947 38142 ft 444 kts 29°
2026-04-26 17:26 40.83103 4.31138 38128 ft 445 kts 29°
2026-04-26 17:27 40.88418 4.35337 38127 ft 446 kts 29°
2026-04-26 17:27 40.93741 4.39550 38138 ft 446 kts 29°
2026-04-26 17:28 40.99068 4.43775 38143 ft 446 kts 29°
2026-04-26 17:28 41.04437 4.47892 38142 ft 446 kts 24°
2026-04-26 17:29 41.09195 4.50461 38140 ft 444 kts 15°
2026-04-26 17:29 41.16169 4.52564 38134 ft 442 kts
2026-04-26 17:30 41.22220 4.54060 38127 ft 442 kts
2026-04-26 17:30 41.28277 4.55555 38129 ft 443 kts
2026-04-26 17:31 41.34297 4.57033 38135 ft 443 kts
2026-04-26 17:31 41.40356 4.58520 38131 ft 443 kts
2026-04-26 17:32 41.46423 4.60012 38125 ft 443 kts
2026-04-26 17:32 41.52490 4.61507 38127 ft 443 kts
2026-04-26 17:33 41.58562 4.63006 38123 ft 444 kts
2026-04-26 17:34 41.67624 4.65253 38123 ft 444 kts
2026-04-26 17:34 41.73552 4.67607 38123 ft 446 kts 20°
2026-04-26 17:35 41.79114 4.71334 38118 ft 449 kts 30°
2026-04-26 17:35 41.84465 4.75630 38116 ft 448 kts 29°
2026-04-26 17:36 41.89793 4.79891 38119 ft 449 kts 29°
2026-04-26 17:36 41.95148 4.84204 38114 ft 449 kts 29°
2026-04-26 17:37 42.00501 4.88530 38119 ft 449 kts 29°
2026-04-26 17:37 42.05851 4.92864 38117 ft 449 kts 29°
2026-04-26 17:38 42.13845 4.99355 38118 ft 450 kts 29°
2026-04-26 17:38 42.19205 5.03717 38119 ft 450 kts 29°
2026-04-26 17:39 42.24561 5.08087 38116 ft 450 kts 29°
2026-04-26 17:39 42.29921 5.12467 38121 ft 450 kts 29°
2026-04-26 17:40 42.34373 5.16112 38123 ft 450 kts 29°
2026-04-26 17:40 42.40602 5.21222 38123 ft 451 kts 29°
2026-04-26 17:41 42.45963 5.25629 38123 ft 451 kts 29°
2026-04-26 17:41 42.51324 5.30046 38119 ft 451 kts 29°
2026-04-26 17:42 42.56686 5.34473 38122 ft 451 kts 29°
2026-04-26 17:42 42.62011 5.38878 38120 ft 451 kts 29°
2026-04-26 17:43 42.67373 5.43323 38120 ft 451 kts 29°
2026-04-26 17:43 42.72734 5.47775 38116 ft 452 kts 29°
2026-04-26 17:44 42.78094 5.52237 38120 ft 452 kts 29°
2026-04-26 17:44 42.83420 5.56678 38121 ft 452 kts 29°
2026-04-26 17:45 42.88786 5.61163 38121 ft 452 kts 29°
2026-04-26 17:45 42.94144 5.65649 38121 ft 452 kts 29°
2026-04-26 17:46 42.99507 5.70150 38120 ft 452 kts 29°
2026-04-26 17:46 43.04832 5.74628 38120 ft 452 kts 29°
2026-04-26 17:47 43.09320 5.78409 38123 ft 452 kts 29°
2026-04-26 17:47 43.15547 5.83667 38121 ft 453 kts 29°
2026-04-26 17:48 43.20910 5.88205 38124 ft 453 kts 29°
2026-04-26 17:48 43.26236 5.92721 38125 ft 453 kts 29°
2026-04-26 17:49 43.31597 5.97276 38127 ft 453 kts 29°
2026-04-26 17:49 43.37046 6.01586 38130 ft 450 kts 21°
2026-04-26 17:50 43.42970 6.04151 38128 ft 445 kts
2026-04-26 17:50 43.49106 6.04991 38124 ft 443 kts
2026-04-26 17:51 43.55246 6.05622 38123 ft 443 kts
2026-04-26 17:51 43.61355 6.06247 38125 ft 443 kts
2026-04-26 17:52 43.67498 6.06869 38123 ft 443 kts
2026-04-26 17:52 43.73635 6.07660 38128 ft 444 kts
2026-04-26 17:53 43.79623 6.09847 38123 ft 447 kts 18°
2026-04-26 17:54 43.88071 6.15311 38128 ft 449 kts 24°
2026-04-26 17:54 43.93688 6.19114 38136 ft 449 kts 24°
2026-04-26 17:55 43.99306 6.22947 38143 ft 450 kts 24°
2026-04-26 17:55 44.04925 6.26798 38144 ft 450 kts 24°
2026-04-26 17:56 44.10543 6.30658 38150 ft 450 kts 24°
2026-04-26 17:57 44.21737 6.38370 38156 ft 450 kts 24°
2026-04-26 17:57 44.27345 6.42245 38150 ft 449 kts 24°
2026-04-26 17:58 44.38551 6.50015 38156 ft 450 kts 24°
2026-04-26 17:59 44.46620 6.55628 38149 ft 449 kts 24°
2026-04-26 17:59 44.52199 6.59522 38152 ft 448 kts 24°
2026-04-26 18:00 44.57775 6.63421 38151 ft 447 kts 24°
2026-04-26 18:00 44.63342 6.67324 38148 ft 447 kts 24°
2026-04-26 18:01 44.68868 6.71204 38160 ft 447 kts 24°
2026-04-26 18:01 44.74429 6.75118 38161 ft 446 kts 24°
2026-04-26 18:02 44.79243 6.77617 38158 ft 443 kts 11°
2026-04-26 18:02 44.86343 6.78629 38161 ft 438 kts 355°
2026-04-26 18:03 44.92387 6.78219 38172 ft 437 kts 355°
2026-04-26 18:03 44.98460 6.77836 38180 ft 437 kts 355°
2026-04-26 18:04 45.04526 6.77439 38184 ft 436 kts 355°
2026-04-26 18:05 45.13621 6.76835 38171 ft 436 kts 355°
2026-04-26 18:05 45.19627 6.76437 38176 ft 435 kts 355°
2026-04-26 18:06 45.25675 6.76032 38173 ft 435 kts 355°
2026-04-26 18:06 45.31721 6.75626 38175 ft 435 kts 355°
2026-04-26 18:07 45.37757 6.75222 38172 ft 434 kts 355°
2026-04-26 18:07 45.43795 6.75466 38172 ft 437 kts
2026-04-26 18:08 45.49611 6.78044 38174 ft 442 kts 24°
2026-04-26 18:08 45.54974 6.82375 38175 ft 443 kts 27°
2026-04-26 18:09 45.60308 6.86782 38179 ft 443 kts 27°
2026-04-26 18:09 45.65652 6.91219 38163 ft 444 kts 27°
2026-04-26 18:10 45.70987 6.95667 38149 ft 443 kts 28°
2026-04-26 18:10 45.76310 7.00116 38136 ft 444 kts 28°
2026-04-26 18:11 45.81638 7.04578 38131 ft 443 kts 28°
2026-04-26 18:11 45.86960 7.09048 38131 ft 443 kts 28°
2026-04-26 18:12 45.92242 7.13498 38131 ft 443 kts 28°
2026-04-26 18:12 45.97531 7.17966 38136 ft 443 kts 28°
2026-04-26 18:13 46.02788 7.22417 38129 ft 443 kts 28°
2026-04-26 18:13 46.08099 7.26924 38121 ft 443 kts 28°
2026-04-26 18:14 46.13372 7.31410 38107 ft 444 kts 28°
2026-04-26 18:14 46.18683 7.35937 38111 ft 444 kts 28°
2026-04-26 18:15 46.23978 7.40460 38102 ft 442 kts 28°
2026-04-26 18:15 46.29268 7.44989 38104 ft 442 kts 28°
2026-04-26 18:16 46.34549 7.49521 38122 ft 441 kts 28°
2026-04-26 18:16 46.42463 7.56332 38143 ft 441 kts 28°
2026-04-26 18:17 46.47701 7.60852 38158 ft 441 kts 28°
2026-04-26 18:17 46.52975 7.65415 38172 ft 441 kts 28°
2026-04-26 18:18 46.58247 7.69986 38170 ft 441 kts 28°
2026-04-26 18:18 46.63487 7.74636 38163 ft 441 kts 29°
2026-04-26 18:19 46.68687 7.79387 38159 ft 441 kts 29°
2026-04-26 18:19 46.73878 7.84117 38153 ft 440 kts 29°
2026-04-26 18:20 46.79024 7.88803 38139 ft 439 kts 29°
2026-04-26 18:20 46.83358 7.92757 38140 ft 439 kts 29°
2026-04-26 18:21 46.89373 7.98258 38138 ft 439 kts 29°
2026-04-26 18:21 46.94564 8.03017 38162 ft 443 kts 29°
2026-04-26 18:22 46.99773 8.07805 38157 ft 441 kts 29°
2026-04-26 18:22 47.04917 8.12543 38161 ft 441 kts 29°
2026-04-26 18:23 47.10025 8.17258 38158 ft 441 kts 29°
2026-04-26 18:23 47.15219 8.22065 38158 ft 441 kts 29°
2026-04-26 18:24 47.20411 8.26881 38159 ft 441 kts 29°
2026-04-26 18:24 47.25599 8.31704 38169 ft 441 kts 30°
2026-04-26 18:25 47.30784 8.36536 38178 ft 441 kts 30°
2026-04-26 18:25 47.35964 8.41375 38180 ft 441 kts 30°
2026-04-26 18:26 47.41150 8.46230 38181 ft 441 kts 30°
2026-04-26 18:26 47.46333 8.51095 38178 ft 442 kts 30°
2026-04-26 18:27 47.51482 8.55939 38179 ft 442 kts 30°
2026-04-26 18:27 47.56667 8.60828 38183 ft 442 kts 30°
2026-04-26 18:28 47.61856 8.65733 38192 ft 443 kts 30°
2026-04-26 18:28 47.67043 8.70648 38193 ft 443 kts 30°
2026-04-26 18:29 47.72234 8.75578 38198 ft 443 kts 30°
2026-04-26 18:29 47.77390 8.80486 38207 ft 443 kts 30°
2026-04-26 18:30 47.82575 8.85435 38208 ft 443 kts 30°
2026-04-26 18:30 47.87761 8.90395 38202 ft 443 kts 30°
2026-04-26 18:31 47.92947 8.95368 38204 ft 443 kts 30°
2026-04-26 18:31 47.98130 9.00350 38202 ft 443 kts 30°
2026-04-26 18:32 48.03311 9.05342 38206 ft 443 kts 30°
2026-04-26 18:32 48.08459 9.10314 38210 ft 443 kts 30°
2026-04-26 18:33 48.13703 9.15154 38211 ft 441 kts 24°
2026-04-26 18:33 48.19444 9.18355 38206 ft 436 kts 11°
2026-04-26 18:34 48.25411 9.19708 38206 ft 433 kts
2026-04-26 18:34 48.31399 9.20733 38205 ft 433 kts
2026-04-26 18:35 48.37353 9.21753 38207 ft 433 kts
2026-04-26 18:35 48.43348 9.22770 38212 ft 434 kts
2026-04-26 18:36 48.49340 9.23787 38216 ft 434 kts
2026-04-26 18:36 48.55346 9.24808 38215 ft 434 kts
2026-04-26 18:37 48.61342 9.25830 38219 ft 434 kts
2026-04-26 18:37 48.67306 9.26778 38220 ft 433 kts
2026-04-26 18:38 48.73307 9.27674 38219 ft 433 kts
2026-04-26 18:38 48.79307 9.28584 38220 ft 433 kts
2026-04-26 18:39 48.85300 9.29504 38222 ft 433 kts
2026-04-26 18:39 48.91288 9.30425 38222 ft 432 kts
2026-04-26 18:40 48.97236 9.31343 38222 ft 432 kts
2026-04-26 18:40 49.03210 9.32266 38233 ft 432 kts
2026-04-26 18:41 49.09188 9.33193 38234 ft 431 kts
2026-04-26 18:41 49.15155 9.34120 38232 ft 431 kts
2026-04-26 18:42 49.21115 9.35048 38235 ft 430 kts
2026-04-26 18:42 49.27030 9.35970 38230 ft 430 kts
2026-04-26 18:43 49.32984 9.36905 38269 ft 431 kts
2026-04-26 18:43 49.35974 9.37375 38465 ft 431 kts
2026-04-26 18:43 49.38954 9.37844 38686 ft 431 kts
2026-04-26 18:44 49.41935 9.38313 38909 ft 430 kts
2026-04-26 18:44 49.44907 9.38781 39054 ft 430 kts
2026-04-26 18:44 49.47884 9.39248 39192 ft 430 kts
2026-04-26 18:44 49.50824 9.39712 39241 ft 430 kts
2026-04-26 18:45 49.56768 9.40652 39246 ft 429 kts
2026-04-26 18:45 49.62704 9.41592 39246 ft 429 kts
2026-04-26 18:46 49.68636 9.42535 39247 ft 429 kts
2026-04-26 18:46 49.74534 9.43475 39246 ft 429 kts
2026-04-26 18:47 49.80465 9.44422 39248 ft 429 kts
2026-04-26 18:47 49.86397 9.45371 39252 ft 429 kts
2026-04-26 18:48 49.92335 9.46323 39256 ft 429 kts
2026-04-26 18:48 49.98269 9.47279 39257 ft 429 kts
2026-04-26 18:49 50.04166 9.48228 39258 ft 429 kts
2026-04-26 18:49 50.10059 9.49782 39259 ft 431 kts
2026-04-26 18:50 50.15920 9.51743 39263 ft 431 kts
2026-04-26 18:50 50.21789 9.53689 39273 ft 431 kts
2026-04-26 18:51 50.26622 9.55306 39256 ft 429 kts
2026-04-26 18:51 50.32424 9.57258 39258 ft 429 kts
2026-04-26 18:52 50.38259 9.59226 39262 ft 429 kts
2026-04-26 18:52 50.44095 9.61200 39272 ft 429 kts
2026-04-26 18:53 50.49926 9.63176 39267 ft 429 kts
2026-04-26 18:53 50.55718 9.65145 39269 ft 429 kts
2026-04-26 18:54 50.61555 9.67134 39274 ft 429 kts
2026-04-26 18:54 50.67392 9.69129 39280 ft 429 kts
2026-04-26 18:55 50.73228 9.71127 39276 ft 429 kts
2026-04-26 18:55 50.79055 9.73129 39280 ft 429 kts
2026-04-26 18:56 50.84855 9.75125 39279 ft 429 kts
2026-04-26 18:56 50.90688 9.77139 39284 ft 429 kts
2026-04-26 18:57 50.94582 9.78486 39272 ft 428 kts
2026-04-26 18:57 51.02313 9.81166 39271 ft 428 kts
2026-04-26 18:58 51.08082 9.83172 39273 ft 427 kts
2026-04-26 18:58 51.13893 9.85199 39272 ft 427 kts
2026-04-26 18:59 51.19696 9.87228 39269 ft 427 kts
2026-04-26 18:59 51.25419 9.89833 39271 ft 430 kts 16°
2026-04-26 19:00 51.31068 9.92971 39269 ft 430 kts 15°
2026-04-26 19:00 51.36686 9.96047 39273 ft 430 kts 15°
2026-04-26 19:01 51.42343 9.99169 39279 ft 430 kts 15°
2026-04-26 19:01 51.47995 10.02307 39279 ft 430 kts 15°
2026-04-26 19:02 51.53648 10.05457 39275 ft 430 kts 15°
2026-04-26 19:02 51.57392 10.07549 39280 ft 430 kts 15°
2026-04-26 19:03 51.64875 10.11739 39282 ft 429 kts 15°
2026-04-26 19:03 51.70547 10.14925 39279 ft 429 kts 15°
2026-04-26 19:04 51.76180 10.18096 39285 ft 429 kts 15°
2026-04-26 19:04 51.81818 10.21280 39283 ft 429 kts 15°
2026-04-26 19:05 51.89313 10.25526 39285 ft 429 kts 15°
2026-04-26 19:06 51.95855 10.29244 39284 ft 429 kts 15°
2026-04-26 19:06 52.01482 10.32451 39290 ft 429 kts 15°
2026-04-26 19:07 52.06161 10.35124 39289 ft 429 kts 15°
2026-04-26 19:07 52.11782 10.38343 39290 ft 428 kts 15°
2026-04-26 19:08 52.17400 10.41569 39288 ft 428 kts 15°
2026-04-26 19:08 52.23927 10.45329 39294 ft 428 kts 15°
2026-04-26 19:09 52.28628 10.48043 39292 ft 428 kts 15°
2026-04-26 19:09 52.34201 10.51269 39291 ft 427 kts 15°
2026-04-26 19:10 52.39842 10.54543 39288 ft 427 kts 15°
2026-04-26 19:10 52.45406 10.57782 39284 ft 427 kts 15°
2026-04-26 19:11 52.51004 10.61049 39281 ft 427 kts 15°
2026-04-26 19:11 52.56600 10.64323 39276 ft 427 kts 15°
2026-04-26 19:12 52.62197 10.67608 39277 ft 427 kts 15°
2026-04-26 19:12 52.67793 10.70900 39270 ft 427 kts 15°
2026-04-26 19:13 52.73351 10.74179 39271 ft 427 kts 15°
2026-04-26 19:13 52.78943 10.77487 39273 ft 427 kts 15°
2026-04-26 19:14 52.84541 10.80807 39273 ft 427 kts 15°
2026-04-26 19:14 52.87397 10.81966 39270 ft 420 kts
2026-04-26 19:14 52.90292 10.82099 39267 ft 416 kts 358°
2026-04-26 19:15 52.95945 10.84422 39255 ft 428 kts 22°
2026-04-26 19:15 53.01222 10.88940 39262 ft 429 kts 22°
2026-04-26 19:16 53.06668 10.92891 39260 ft 426 kts 15°
2026-04-26 19:16 53.12262 10.96142 39269 ft 426 kts 15°
2026-04-26 19:17 53.17845 10.99532 39272 ft 428 kts 16°
2026-04-26 19:17 53.23421 11.03024 39279 ft 428 kts 16°
2026-04-26 19:18 53.28966 11.06522 39287 ft 429 kts 16°
2026-04-26 19:18 53.34551 11.10054 39289 ft 429 kts 16°
2026-04-26 19:19 53.40139 11.13596 39245 ft 429 kts 16°
2026-04-26 19:19 53.42932 11.15371 39028 ft 428 kts 16°
2026-04-26 19:19 53.45708 11.17138 38773 ft 426 kts 16°
2026-04-26 19:19 53.48477 11.18902 38491 ft 427 kts 16°
2026-04-26 19:20 53.51258 11.20675 38221 ft 428 kts 16°
2026-04-26 19:20 53.53101 11.21851 38034 ft 428 kts 16°
2026-04-26 19:20 53.56795 11.24213 37680 ft 429 kts 16°
2026-04-26 19:20 53.59583 11.25999 37407 ft 429 kts 16°
2026-04-26 19:21 53.62376 11.27791 37144 ft 430 kts 16°
2026-04-26 19:21 53.65176 11.29590 36886 ft 430 kts 16°
2026-04-26 19:21 53.67977 11.31393 36627 ft 431 kts 16°
2026-04-26 19:21 53.70770 11.33238 36375 ft 433 kts 19°
2026-04-26 19:22 53.73427 11.35720 36121 ft 441 kts 31°
2026-04-26 19:22 53.75805 11.39056 35880 ft 448 kts 38°
2026-04-26 19:22 53.78064 11.42693 35632 ft 449 kts 38°
2026-04-26 19:22 53.80317 11.46366 35381 ft 450 kts 38°
2026-04-26 19:23 53.82594 11.49991 35162 ft 450 kts 38°
2026-04-26 19:23 53.84869 11.53528 34921 ft 450 kts 37°
2026-04-26 19:23 53.87192 11.57087 34681 ft 451 kts 37°
2026-04-26 19:23 53.89524 11.60640 34448 ft 451 kts 37°
2026-04-26 19:24 53.91863 11.64202 34200 ft 452 kts 37°
2026-04-26 19:24 53.94199 11.67766 33920 ft 452 kts 36°
2026-04-26 19:24 53.98879 11.74915 33399 ft 453 kts 37°
2026-04-26 19:25 54.01222 11.78508 33122 ft 453 kts 37°
2026-04-26 19:25 54.02774 11.80889 32947 ft 454 kts 37°
2026-04-26 19:25 54.05873 11.85654 32598 ft 454 kts 37°
2026-04-26 19:25 54.08218 11.89265 32338 ft 454 kts 37°
2026-04-26 19:26 54.10563 11.92882 32086 ft 455 kts 37°
2026-04-26 19:26 54.12903 11.96499 31831 ft 455 kts 37°
2026-04-26 19:26 54.15249 12.00132 31583 ft 455 kts 37°
2026-04-26 19:26 54.17594 12.03765 31330 ft 456 kts 37°
2026-04-26 19:27 54.19939 12.07406 31078 ft 456 kts 37°
2026-04-26 19:27 54.22281 12.11047 30834 ft 454 kts 37°
2026-04-26 19:27 54.24610 12.14674 30591 ft 452 kts 37°
2026-04-26 19:27 54.26929 12.18292 30355 ft 450 kts 37°
2026-04-26 19:28 54.29247 12.21865 30063 ft 446 kts 33°
2026-04-26 19:28 54.31770 12.24722 29785 ft 434 kts 21°
2026-04-26 19:28 54.34558 12.26690 29503 ft 428 kts 15°
2026-04-26 19:28 54.37344 12.28446 29222 ft 425 kts 15°
2026-04-26 19:29 54.40074 12.30165 28953 ft 423 kts 15°
2026-04-26 19:29 54.42831 12.31905 28623 ft 421 kts 15°
2026-04-26 19:29 54.45575 12.33636 28087 ft 418 kts 15°
2026-04-26 19:29 54.48288 12.35352 27566 ft 412 kts 15°
2026-04-26 19:30 54.50955 12.37043 27053 ft 406 kts 15°
2026-04-26 19:30 54.53587 12.38717 26540 ft 400 kts 15°
2026-04-26 19:30 54.56176 12.40366 26039 ft 395 kts 15°
2026-04-26 19:30 54.57875 12.41451 25711 ft 391 kts 15°
2026-04-26 19:31 54.61260 12.43616 25059 ft 384 kts 15°
2026-04-26 19:31 54.63748 12.45211 24588 ft 380 kts 15°
2026-04-26 19:31 54.66174 12.46769 24130 ft 375 kts 15°
2026-04-26 19:31 54.68607 12.48333 23622 ft 371 kts 15°
2026-04-26 19:32 54.71015 12.49883 23070 ft 367 kts 15°
2026-04-26 19:32 54.73389 12.51413 22531 ft 363 kts 15°
2026-04-26 19:32 54.75747 12.52933 21999 ft 359 kts 15°
2026-04-26 19:32 54.78078 12.54437 21478 ft 356 kts 15°
2026-04-26 19:33 54.80432 12.55591 20967 ft 349 kts
2026-04-26 19:33 54.82914 12.56146 20465 ft 367 kts
2026-04-26 19:33 54.85455 12.56587 19969 ft 366 kts
2026-04-26 19:33 54.87971 12.57047 19475 ft 361 kts
2026-04-26 19:34 54.90450 12.57545 19019 ft 356 kts
2026-04-26 19:34 54.92871 12.58062 18462 ft 356 kts
2026-04-26 19:34 54.95348 12.58606 17528 ft 362 kts
2026-04-26 19:34 54.97871 12.59169 16618 ft 367 kts
2026-04-26 19:35 55.00394 12.59741 15956 ft 364 kts
2026-04-26 19:35 55.02892 12.60312 15333 ft 360 kts
2026-04-26 19:35 55.05360 12.60875 14724 ft 356 kts
2026-04-26 19:35 55.07799 12.61430 14132 ft 352 kts
2026-04-26 19:36 55.10217 12.61981 13460 ft 349 kts
2026-04-26 19:36 55.11808 12.62354 13059 ft 346 kts
2026-04-26 19:36 55.14911 12.63065 12807 ft 326 kts
2026-04-26 19:36 55.17077 12.63557 12669 ft 311 kts
2026-04-26 19:37 55.19174 12.64034 12542 ft 297 kts
2026-04-26 19:37 55.21178 12.64491 12410 ft 284 kts
2026-04-26 19:37 55.23102 12.65228 12051 ft 284 kts 13°
2026-04-26 19:37 55.24929 12.66574 11633 ft 287 kts 22°
2026-04-26 19:38 55.26673 12.68287 11216 ft 286 kts 24°
2026-04-26 19:38 55.28410 12.69975 10803 ft 285 kts 23°
2026-04-26 19:38 55.30144 12.71649 10412 ft 283 kts 23°
2026-04-26 19:38 55.31867 12.73311 9985 ft 282 kts 24°
2026-04-26 19:39 55.33637 12.74532 9546 ft 273 kts
2026-04-26 19:39 55.35480 12.74346 9100 ft 264 kts 340°
2026-04-26 19:39 55.37194 12.73228 8641 ft 263 kts 344°
2026-04-26 19:39 55.39032 12.73173 8192 ft 268 kts
2026-04-26 19:40 55.40872 12.73661 7733 ft 265 kts
2026-04-26 19:40 55.42654 12.74145 7440 ft 252 kts
2026-04-26 19:40 55.44342 12.74610 7186 ft 240 kts
2026-04-26 19:40 55.45953 12.75059 6929 ft 229 kts
2026-04-26 19:41 55.47507 12.75498 6687 ft 228 kts
2026-04-26 19:41 55.49056 12.75929 6423 ft 228 kts
2026-04-26 19:41 55.50613 12.76361 6154 ft 226 kts
2026-04-26 19:41 55.51658 12.76320 5946 ft 220 kts 343°
2026-04-26 19:42 55.53271 12.74351 5586 ft 218 kts 301°
2026-04-26 19:42 55.53675 12.71804 5304 ft 218 kts 269°
2026-04-26 19:42 55.53196 12.69274 5021 ft 226 kts 237°
2026-04-26 19:42 55.52069 12.67307 4735 ft 228 kts 225°
2026-04-26 19:43 55.50885 12.65474 4442 ft 225 kts 225°
2026-04-26 19:43 55.49707 12.63640 4152 ft 225 kts 225°
2026-04-26 19:43 55.48550 12.61827 4038 ft 223 kts 225°
2026-04-26 19:43 55.47405 12.60028 3993 ft 220 kts 225°
2026-04-26 19:44 55.46302 12.58305 3995 ft 204 kts 225°
2026-04-26 19:44 55.45285 12.56735 3990 ft 186 kts 225°
2026-04-26 19:44 55.44308 12.55306 3997 ft 186 kts 216°
2026-04-26 19:44 55.43094 12.54435 3999 ft 189 kts 198°
2026-04-26 19:45 55.41813 12.53926 3994 ft 189 kts 202°
2026-04-26 19:45 55.40640 12.52947 3999 ft 186 kts 216°
2026-04-26 19:45 55.39600 12.51627 3994 ft 184 kts 223°
2026-04-26 19:45 55.38627 12.50173 3995 ft 183 kts 226°
2026-04-26 19:46 55.37689 12.48701 3997 ft 183 kts 226°
2026-04-26 19:46 55.36742 12.47200 4000 ft 183 kts 226°
2026-04-26 19:46 55.36003 12.45460 3997 ft 177 kts 256°
2026-04-26 19:46 55.36063 12.43388 3965 ft 170 kts 295°
2026-04-26 19:47 55.36807 12.41791 3673 ft 170 kts 314°
2026-04-26 19:47 55.37409 12.40900 3394 ft 174 kts 327°
2026-04-26 19:47 55.39014 12.40796 3094 ft 185 kts 14°
2026-04-26 19:47 55.40240 12.41526 3000 ft 185 kts 15°
2026-04-26 19:48 55.41465 12.42263 2998 ft 187 kts 15°
2026-04-26 19:48 55.42684 12.42996 2908 ft 183 kts 15°
2026-04-26 19:48 55.43889 12.43725 2561 ft 184 kts 15°
2026-04-26 19:48 55.45096 12.44440 2187 ft 186 kts 15°
2026-04-26 19:49 55.46313 12.45150 2035 ft 187 kts 15°
2026-04-26 19:49 55.47519 12.45851 1989 ft 174 kts 15°
2026-04-26 19:49 55.48601 12.46493 1984 ft 155 kts 15°
2026-04-26 19:49 55.49575 12.47076 2020 ft 147 kts 15°
2026-04-26 19:50 55.50543 12.47699 1999 ft 147 kts 20°
2026-04-26 19:50 55.51442 12.48578 1997 ft 149 kts 31°
2026-04-26 19:50 55.52274 12.49679 1901 ft 151 kts 36°
2026-04-26 19:50 55.52933 12.50657 1726 ft 148 kts 38°
2026-04-26 19:51 55.53710 12.51851 1520 ft 147 kts 39°
2026-04-26 19:51 55.54475 12.53028 1318 ft 148 kts 39°
2026-04-26 19:51 55.55243 12.54214 1118 ft 147 kts 40°
2026-04-26 19:51 55.56006 12.55390 904 ft 143 kts 40°
2026-04-26 19:52 55.56753 12.56538 697 ft 143 kts 40°
2026-04-26 19:52 55.57504 12.57667 507 ft 141 kts 43°
2026-04-26 19:52 55.58226 12.58818 301 ft 140 kts 41°
2026-04-26 19:52 55.58961 12.59944 140 ft 140 kts 42°
2026-04-26 19:53 55.59674 12.61045 28 ft 128 kts 42°
2026-04-26 19:53 55.60187 12.61845 26 ft 64 kts 41°
2026-04-26 19:53 55.60484 12.62260 26 ft 43 kts 26°
2026-04-26 19:53 55.60657 12.62354 29 ft 0 kts 12°
2026-04-26 19:55 55.60685 12.62365 26 ft 9 kts 12°
2026-04-26 19:55 55.60775 12.62401 26 ft 18 kts 18°
2026-04-26 19:55 55.60889 12.62552 24 ft 21 kts 42°
2026-04-26 19:56 55.61009 12.62736 27 ft 25 kts 41°
2026-04-26 19:56 55.61119 12.62907 24 ft 18 kts 41°
2026-04-26 19:56 55.61221 12.63064 26 ft 21 kts 39°
2026-04-26 19:56 55.61336 12.63242 28 ft 23 kts 41°
2026-04-26 19:57 55.61459 12.63431 25 ft 20 kts 42°
2026-04-26 19:57 55.61562 12.63598 24 ft 21 kts 41°
2026-04-26 19:57 55.61678 12.63772 24 ft 23 kts 42°
2026-04-26 19:57 55.61747 12.63870 25 ft 9 kts 39°
2026-04-26 19:58 55.61800 12.63957 24 ft 12 kts 43°
2026-04-26 19:58 55.61870 12.64065 26 ft 8 kts 30°
2026-04-26 19:58 55.61931 12.64118 26 ft 12 kts 22°
2026-04-26 19:58 55.61942 12.64126 23 ft 0 kts 24°
2026-04-26 19:59 55.61945 12.64128 23 ft 2 kts 25°
2026-04-26 19:59 55.61973 12.64154 26 ft 7 kts 27°
2026-04-26 19:59 55.62038 12.64209 24 ft 14 kts 25°
2026-04-26 19:59 55.62145 12.64300 24 ft 21 kts 26°
2026-04-26 20:00 55.62258 12.64455 26 ft 19 kts 74°
2026-04-26 20:00 55.62302 12.64543 26 ft 1 kts 14°
2026-04-26 20:00 55.62313 12.64621 26 ft 11 kts 76°
2026-04-26 20:00 55.62386 12.64673 25 ft 14 kts 357°
2026-04-26 20:01 55.62496 12.64659 23 ft 18 kts 353°
2026-04-26 20:01 55.62627 12.64657 25 ft 19 kts
2026-04-26 20:01 55.62643 12.64658 23 ft 0 kts
2026-04-26 20:01 55.62643 12.64641 27 ft 4 kts 266°
2026-04-26 20:02 55.62644 12.64596 23 ft 0 kts 278°
2026-04-26 20:02 55.62647 12.64570 26 ft 4 kts 282°
2026-04-26 20:02 55.62649 12.64553 25 ft 1 kts 281°
2026-04-26 20:02 55.62649 12.64552 25 ft 0 kts 281°